• In Deutschland
  • Länderverzeichnis
  • Für 7 Tage
  • Wassertemperatur
  • Satellitenkarten
  • Wetterkarte
  • Widgets
  • user-avatar
    Anmelden

    Stündliche Wetter Gomel

    Heute, 29 Juni, Donnerstag

    Zeit Temperatur Niederschläge Wind Luftdruck Luftfeuchtigkeit
    00:00 +17°C° 0 mm 2 m/S 747 mmHg 73%
    01:00 +17°C° 0 mm 2 m/S 747 mmHg 74%
    02:00 +16°C° 0 mm 2 m/S 747 mmHg 76%
    03:00 +16°C° 0 mm 2 m/S 747 mmHg 76%
    04:00 +16°C° 0 mm 3 m/S 747 mmHg 76%
    05:00 +16°C° 0 mm 3 m/S 747 mmHg 76%
    06:00 +18°C° 0 mm 3 m/S 747 mmHg 71%
    07:00 +20°C° 0 mm 3 m/S 747 mmHg 66%
    08:00 +22°C° 0 mm 3 m/S 747 mmHg 61%
    09:00 +25°C° 0 mm 4 m/S 747 mmHg 57%
    10:00 +27°C° 0 mm 4 m/S 747 mmHg 52%
    11:00 +29°C° 0 mm 4 m/S 747 mmHg 48%
    12:00 +30°C° 0 mm 5 m/S 746 mmHg 47%
    13:00 +32°C° 0 mm 5 m/S 746 mmHg 46%
    14:00 +32°C° 0 mm 5 m/S 745 mmHg 45%
    15:00 +32°C° 0 mm 5 m/S 745 mmHg 47%
    16:00 +32°C° 0 mm 5 m/S 745 mmHg 50%
    17:00 +30°C° 0 mm 5 m/S 744 mmHg 52%
    18:00 +29°C° 0 mm 4 m/S 744 mmHg 58%
    19:00 +27°C° 0 mm 4 m/S 744 mmHg 64%
    20:00 +26°C° 0 mm 4 m/S 743 mmHg 70%
    21:00 +23°C° 0,8 mm 4 m/S 744 mmHg 77%
    22:00 +22°C° 0,8 mm 3 m/S 744 mmHg 84%
    23:00 +21°C° 0,8 mm 3 m/S 744 mmHg 91%

    Morgen, 30 Juni, Freitag

    Zeit Temperatur Niederschläge Wind Luftdruck Luftfeuchtigkeit
    00:00 +21°C° 0,1 mm 3 m/S 744 mmHg 91%
    01:00 +21°C° 0,1 mm 4 m/S 743 mmHg 91%
    02:00 +21°C° 0,1 mm 4 m/S 743 mmHg 91%
    03:00 +21°C° 0,2 mm 4 m/S 743 mmHg 93%
    04:00 +20°C° 0,2 mm 4 m/S 743 mmHg 94%
    05:00 +20°C° 0,2 mm 4 m/S 743 mmHg 95%
    06:00 +21°C° 0,5 mm 3 m/S 743 mmHg 92%
    07:00 +22°C° 0,5 mm 3 m/S 743 mmHg 89%
    08:00 +24°C° 0,5 mm 3 m/S 743 mmHg 85%
    09:00 +26°C° 0,1 mm 4 m/S 743 mmHg 73%
    10:00 +28°C° 0,1 mm 4 m/S 743 mmHg 60%
    11:00 +30°C° 0,1 mm 5 m/S 743 mmHg 47%
    12:00 +30°C° 0,1 mm 5 m/S 743 mmHg 45%
    13:00 +30°C° 0,1 mm 5 m/S 743 mmHg 43%
    14:00 +32°C° 0,1 mm 5 m/S 742 mmHg 42%
    15:00 +30°C° 0,1 mm 5 m/S 742 mmHg 46%
    16:00 +29°C° 0,1 mm 4 m/S 742 mmHg 50%
    17:00 +29°C° 0,1 mm 3 m/S 742 mmHg 55%
    18:00 +27°C° 0 mm 3 m/S 742 mmHg 62%
    19:00 +25°C° 0 mm 2 m/S 742 mmHg 68%
    20:00 +23°C° 0 mm 2 m/S 742 mmHg 75%
    21:00 +21°C° 0,2 mm 2 m/S 743 mmHg 78%
    22:00 +20°C° 0,2 mm 2 m/S 743 mmHg 81%
    23:00 +19°C° 0,2 mm 2 m/S 743 mmHg 84%

    übermorgen, 1 Juli, Samstag

    Zeit Temperatur Niederschläge Wind Luftdruck Luftfeuchtigkeit
    00:00 +19°C° 0,1 mm 2 m/S 744 mmHg 86%
    01:00 +18°C° 0,1 mm 2 m/S 744 mmHg 88%
    02:00 +18°C° 0,1 mm 3 m/S 744 mmHg 90%
    03:00 +17°C° 0 mm 2 m/S 745 mmHg 90%
    04:00 +17°C° 0 mm 2 m/S 745 mmHg 91%
    05:00 +17°C° 0 mm 2 m/S 745 mmHg 91%
    06:00 +19°C° 0 mm 2 m/S 746 mmHg 83%
    07:00 +21°C° 0 mm 2 m/S 746 mmHg 75%
    08:00 +23°C° 0 mm 2 m/S 746 mmHg 67%
    09:00 +25°C° 0 mm 2 m/S 746 mmHg 60%
    10:00 +26°C° 0 mm 3 m/S 745 mmHg 53%
    11:00 +28°C° 0 mm 3 m/S 745 mmHg 46%
    12:00 +26°C° 0,7 mm 3 m/S 745 mmHg 59%
    13:00 +24°C° 0,7 mm 2 m/S 745 mmHg 72%
    14:00 +21°C° 0,7 mm 2 m/S 745 mmHg 85%
    15:00 +20°C° 1,9 mm 2 m/S 744 mmHg 88%
    16:00 +19°C° 1,9 mm 3 m/S 744 mmHg 91%
    17:00 +18°C° 1,9 mm 3 m/S 743 mmHg 94%
    18:00 +17°C° 0,6 mm 2 m/S 743 mmHg 95%
    19:00 +17°C° 0,6 mm 2 m/S 743 mmHg 96%
    20:00 +18°C° 0,6 mm 1 m/S 743 mmHg 96%
    21:00 +18°C° 0,1 mm 1 m/S 743 mmHg 97%
    22:00 +16°C° 0,1 mm 2 m/S 743 mmHg 97%
    23:00 +16°C° 0,1 mm 2 m/S 743 mmHg 97%

    2 Juli, Sonntag

    Zeit Temperatur Niederschläge Wind Luftdruck Luftfeuchtigkeit
    00:00 +16°C° 0 mm 2 m/S 743 mmHg 97%
    01:00 +15°C° 0 mm 2 m/S 743 mmHg 98%
    02:00 +15°C° 0 mm 2 m/S 743 mmHg 98%
    03:00 +15°C° 0 mm 2 m/S 744 mmHg 98%
    04:00 +15°C° 0 mm 2 m/S 744 mmHg 98%
    05:00 +15°C° 0 mm 2 m/S 744 mmHg 98%
    06:00 +16°C° 0 mm 2 m/S 744 mmHg 93%
    07:00 +18°C° 0 mm 2 m/S 744 mmHg 88%
    08:00 +19°C° 0 mm 2 m/S 744 mmHg 83%
    09:00 +21°C° 0 mm 2 m/S 744 mmHg 71%
    10:00 +24°C° 0 mm 2 m/S 744 mmHg 60%
    11:00 +26°C° 0 mm 2 m/S 744 mmHg 48%
    12:00 +26°C° 0 mm 2 m/S 744 mmHg 46%
    13:00 +27°C° 0 mm 3 m/S 744 mmHg 43%
    14:00 +27°C° 0 mm 3 m/S 743 mmHg 41%
    15:00 +27°C° 0 mm 3 m/S 743 mmHg 44%
    16:00 +27°C° 0 mm 3 m/S 743 mmHg 47%
    17:00 +27°C° 0 mm 2 m/S 743 mmHg 50%
    18:00 +25°C° 0,1 mm 2 m/S 743 mmHg 60%
    19:00 +23°C° 0,1 mm 2 m/S 743 mmHg 71%
    20:00 +19°C° 0,1 mm 2 m/S 743 mmHg 81%
    21:00 +19°C° 0,3 mm 2 m/S 743 mmHg 84%
    22:00 +18°C° 0,3 mm 2 m/S 743 mmHg 86%
    23:00 +17°C° 0,3 mm 2 m/S 743 mmHg 89%

    3 Juli, Montag

    Zeit Temperatur Niederschläge Wind Luftdruck Luftfeuchtigkeit
    00:00 +17°C° 0,1 mm 2 m/S 743 mmHg 91%
    01:00 +16°C° 0,1 mm 2 m/S 743 mmHg 92%
    02:00 +16°C° 0,1 mm 2 m/S 742 mmHg 93%
    03:00 +16°C° 0 mm 2 m/S 743 mmHg 94%
    04:00 +16°C° 0 mm 2 m/S 743 mmHg 95%
    05:00 +16°C° 0 mm 2 m/S 743 mmHg 95%
    06:00 +17°C° 0 mm 3 m/S 743 mmHg 92%
    07:00 +17°C° 0 mm 3 m/S 743 mmHg 88%
    08:00 +18°C° 0 mm 3 m/S 743 mmHg 85%
    09:00 +19°C° 0,1 mm 3 m/S 744 mmHg 81%
    10:00 +19°C° 0,1 mm 3 m/S 744 mmHg 78%
    11:00 +20°C° 0,1 mm 3 m/S 744 mmHg 74%
    12:00 +21°C° 0,1 mm 4 m/S 744 mmHg 69%
    13:00 +22°C° 0,1 mm 4 m/S 744 mmHg 64%
    14:00 +23°C° 0,1 mm 4 m/S 744 mmHg 58%
    15:00 +22°C° 0,1 mm 4 m/S 744 mmHg 61%
    16:00 +22°C° 0,1 mm 4 m/S 744 mmHg 63%
    17:00 +22°C° 0,1 mm 4 m/S 744 mmHg 66%
    18:00 +20°C° 0,1 mm 4 m/S 744 mmHg 70%
    19:00 +18°C° 0,1 mm 4 m/S 744 mmHg 75%
    20:00 +16°C° 0,1 mm 3 m/S 745 mmHg 80%
    21:00 +14°C° 0 mm 3 m/S 745 mmHg 82%
    22:00 +13°C° 0 mm 3 m/S 745 mmHg 84%
    23:00 +12°C° 0 mm 3 m/S 746 mmHg 86%

    4 Juli, Dienstag

    Zeit Temperatur Niederschläge Wind Luftdruck Luftfeuchtigkeit
    00:00 +12°C° 0 mm 3 m/S 746 mmHg 87%
    01:00 +12°C° 0 mm 2 m/S 746 mmHg 88%
    02:00 +12°C° 0 mm 2 m/S 747 mmHg 89%
    03:00 +10°C° 0 mm 2 m/S 747 mmHg 88%
    04:00 +10°C° 0 mm 2 m/S 747 mmHg 87%
    05:00 +10°C° 0 mm 2 m/S 747 mmHg 86%
    06:00 +13°C° 0 mm 2 m/S 747 mmHg 77%
    07:00 +14°C° 0 mm 3 m/S 747 mmHg 69%
    08:00 +16°C° 0 mm 3 m/S 747 mmHg 60%
    09:00 +18°C° 0 mm 3 m/S 747 mmHg 56%
    10:00 +19°C° 0 mm 3 m/S 746 mmHg 51%
    11:00 +20°C° 0 mm 3 m/S 746 mmHg 47%
    12:00 +21°C° 0 mm 3 m/S 746 mmHg 45%
    13:00 +22°C° 0 mm 3 m/S 746 mmHg 43%
    14:00 +22°C° 0 mm 3 m/S 745 mmHg 40%
    15:00 +22°C° 0,1 mm 3 m/S 745 mmHg 45%
    16:00 +22°C° 0,1 mm 3 m/S 745 mmHg 49%
    17:00 +21°C° 0,1 mm 3 m/S 745 mmHg 53%
    18:00 +19°C° 0,3 mm 3 m/S 744 mmHg 64%
    19:00 +17°C° 0,3 mm 2 m/S 744 mmHg 75%
    20:00 +15°C° 0,3 mm 2 m/S 744 mmHg 86%
    21:00 +15°C° 0,5 mm 2 m/S 744 mmHg 89%
    22:00 +14°C° 0,5 mm 2 m/S 744 mmHg 92%
    23:00 +13°C° 0,5 mm 2 m/S 744 mmHg 96%
    Mehr zeigen